Location: Devore Heights
(34.2372°N, 117.4156°W)
Time: 02:08:42
(UTC+00:00)

SR - Pass Details

Date: 13 September 2024
Orbit: 578 x 855 km, 66.7° (Epoch: 02 October)

Event Time Altitude Azimuth Distance (km) Brightness Sun altitude
Rises 07:13:56 0° 326° (NW) 2,989 - -51.5°
Reaches altitude 10° 07:16:13 10° 321° (NW) 2,115 - -51.6°
Maximum altitude 07:20:50 48° 248° (WSW) 933 - -51.8°
Drops below altitude 10° 07:25:49 10° 174° (S) 2,282 - -51.9°
Sets 07:28:22 0° 169° (S) 3,249 - -52.0°
